Weather History for Manistique, MI

Change the Weather History Date:

Sunday, February 24, 2013

  Actual Average Record
Temperature  
Mean Temperature 25 °F -  
Max Temperature 33 °F 28 °F 45 °F (1958)
Min Temperature 17 °F 11 °F -22 °F (1963)
Degree Days  
Heating Degree Days 40    
Moisture  
Dew Point 22 °F    
Average Humidity 83    
Maximum Humidity 93    
Minimum Humidity 65    
Precipitation  
Precipitation 0.00 in - - ()
Sea Level Pressure  
Sea Level Pressure 29.98 in    
Wind  
Wind Speed 3 mph (NW)    
Max Wind Speed 10 mph    
Max Gust Speed -    
Visibility 9 miles    
Events Snow    
Averages and records for this station are not official NWS values.
T = Trace of Precipitation, MM = Missing Value Source: NWS Daily Summary

Daily Weather History Graph

Daily Weather History Graph

Search for Another Location

Airport:

Trip Planner

Search our weather history database for the weather conditions in past years. The results will help you decide how hot, cold, wet, or windy it might be!

Date:

Astronomy

Feb. 24, 2013 Rise Set
Actual Time 7:31 AM EST 6:24 PM EST
Civil Twilight 7:01 AM EST 6:54 PM EST
Nautical Twilight 6:27 AM EST 7:29 PM EST
Astronomical Twilight 5:52 AM EST 8:03 PM EST
Moon 5:35 PM EST (2/24) 6:30 AM EST (2/24)
Length of Visible Light 11h 52m
Length of Day
10h 52m
Waxing Gibbous, 99% of the Moon is Illuminated
Feb 24
Waxing Gibbous
Feb 25
Full
Mar 4
Last Quarter
Mar 11
New
Mar 19
First Quarter

Hourly Weather History & Observations

Time (EST) Temp. Windchill Dew Point Humidity Pressure Visibility Wind Dir Wind Speed Gust Speed Precip Events Conditions
12:15 AM 24.8 °F - 21.2 °F 86% 29.81 in 10.0 mi Calm Calm - N/A Snow Light Snow
12:35 AM 23.0 °F - 19.4 °F 86% 29.81 in 3.0 mi Calm Calm - N/A Snow Light Snow
12:54 AM 24.8 °F - 21.2 °F 86% 29.82 in 7.0 mi Calm Calm - N/A Snow Light Snow
1:15 AM 24.8 °F - 23.0 °F 93% 29.82 in 10.0 mi Calm Calm - N/A Snow Light Snow
1:34 AM 24.8 °F - 23.0 °F 93% 29.82 in 10.0 mi Calm Calm - N/A Snow Light Snow
1:55 AM 26.6 °F - 23.0 °F 86% 29.83 in 10.0 mi Calm Calm - N/A Snow Light Snow
2:15 AM 24.8 °F - 21.2 °F 86% 29.83 in 10.0 mi Calm Calm - N/A Snow Light Snow
2:34 AM 24.8 °F 20.5 °F 21.2 °F 86% 29.84 in 10.0 mi NNW 3.5 mph - N/A Snow Light Snow
2:55 AM 24.8 °F - 21.2 °F 86% 29.84 in 10.0 mi Calm Calm - N/A Snow Light Snow
3:15 AM 23.0 °F 18.4 °F 21.2 °F 93% 29.84 in 10.0 mi NW 3.5 mph - N/A   Overcast
3:34 AM 23.0 °F 15.8 °F 21.2 °F 93% 29.85 in 10.0 mi NW 5.8 mph - N/A   Overcast
3:55 AM 21.2 °F 14.9 °F 19.4 °F 93% 29.85 in 10.0 mi NNW 4.6 mph - N/A   Scattered Clouds
4:14 AM 21.2 °F 14.9 °F 19.4 °F 93% 29.85 in 10.0 mi NNW 4.6 mph - N/A   Clear
4:35 AM 21.2 °F 16.4 °F 19.4 °F 93% 29.86 in 10.0 mi NNW 3.5 mph - N/A   Clear
4:55 AM 17.6 °F 12.3 °F 15.8 °F 93% 29.87 in 4.0 mi NNW 3.5 mph - N/A   Scattered Clouds
5:14 AM 17.6 °F 10.7 °F 15.8 °F 93% 29.87 in 4.0 mi NW 4.6 mph - N/A   Clear
5:35 AM 17.6 °F 12.3 °F 15.8 °F 93% 29.88 in 2.0 mi NW 3.5 mph - N/A   Clear
5:54 AM 17.6 °F 12.3 °F 15.8 °F 93% 29.89 in 1.0 mi NW 3.5 mph - N/A   Mist
6:15 AM 19.4 °F 12.8 °F 17.6 °F 93% 29.90 in 3.0 mi WNW 4.6 mph - N/A   Clear
6:34 AM 19.4 °F 14.3 °F 15.8 °F 86% 29.91 in 7.0 mi WNW 3.5 mph - N/A   Clear
6:55 AM 19.4 °F 12.8 °F 15.8 °F 86% 29.92 in 10.0 mi WNW 4.6 mph - N/A   Mostly Cloudy
7:15 AM 21.2 °F 14.9 °F 17.6 °F 86% 29.92 in 10.0 mi NW 4.6 mph - N/A   Overcast
7:34 AM 23.0 °F 17.0 °F 19.4 °F 86% 29.93 in 10.0 mi WNW 4.6 mph - N/A   Overcast
7:55 AM 24.8 °F 19.1 °F 21.2 °F 86% 29.94 in 10.0 mi WNW 4.6 mph - N/A   Overcast
8:14 AM 24.8 °F 17.9 °F 23.0 °F 93% 29.94 in 10.0 mi NW 5.8 mph - N/A   Overcast
8:35 AM 24.8 °F 19.1 °F 23.0 °F 93% 29.94 in 10.0 mi WNW 4.6 mph - N/A   Overcast
8:54 AM 26.6 °F 21.2 °F 23.0 °F 86% 29.95 in 10.0 mi WNW 4.6 mph - N/A   Overcast
9:15 AM 26.6 °F 21.2 °F 24.8 °F 93% 29.96 in 10.0 mi WNW 4.6 mph - N/A   Overcast
9:34 AM 26.6 °F 21.2 °F 24.8 °F 93% 29.97 in 7.0 mi NW 4.6 mph - N/A Snow Light Snow
9:54 AM 28.4 °F 21.2 °F 24.8 °F 86% 29.98 in 3.0 mi NW 6.9 mph - N/A Snow Light Snow
10:15 AM 28.4 °F 21.2 °F 26.6 °F 93% 29.99 in 5.0 mi WNW 6.9 mph - N/A Snow Light Snow
10:34 AM 28.4 °F 23.3 °F 26.6 °F 93% 29.99 in 10.0 mi WNW 4.6 mph - N/A Snow Light Snow
10:55 AM 28.4 °F 22.2 °F 26.6 °F 93% 29.99 in 10.0 mi West 5.8 mph - N/A Snow Light Snow
11:14 AM 30.2 °F 24.3 °F 26.6 °F 86% 30.00 in 10.0 mi WNW 5.8 mph - N/A Snow Light Snow
11:34 AM 30.2 °F - 28.4 °F 93% 30.00 in 5.0 mi Calm Calm - N/A Snow Light Snow
11:55 AM 32.0 °F 28.7 °F 28.4 °F 87% 30.00 in 10.0 mi NW 3.5 mph - N/A   Overcast
12:14 PM 32.0 °F 27.5 °F 26.6 °F 80% 30.01 in 10.0 mi WNW 4.6 mph - N/A Snow Light Snow
12:35 PM 32.0 °F 26.4 °F 26.6 °F 80% 30.02 in 3.0 mi NW 5.8 mph - N/A Snow Light Snow
12:55 PM 30.2 °F 22.6 °F 26.6 °F 86% 30.02 in 5.0 mi NNW 8.1 mph - N/A Snow Light Snow
1:14 PM 32.0 °F 25.6 °F 26.6 °F 80% 30.02 in 10.0 mi North 6.9 mph - N/A   Overcast
1:35 PM 32.0 °F 23.6 °F 24.8 °F 75% 30.02 in 10.0 mi NW 10.4 mph - N/A   Overcast
1:54 PM 32.0 °F 24.2 °F 24.8 °F 75% 30.02 in 10.0 mi NW 9.2 mph - N/A   Overcast
2:14 PM 32.0 °F 23.6 °F 24.8 °F 75% 30.02 in 10.0 mi North 10.4 mph - N/A   Overcast
2:35 PM 33.8 °F 25.8 °F 26.6 °F 75% 30.02 in 10.0 mi North 10.4 mph - N/A   Overcast
2:54 PM 33.8 °F 27.7 °F 24.8 °F 70% 30.02 in 10.0 mi NNW 6.9 mph - N/A   Overcast
3:15 PM 33.8 °F 27.7 °F 24.8 °F 70% 30.02 in 10.0 mi North 6.9 mph - N/A   Overcast
3:35 PM 33.8 °F 27.0 °F 23.0 °F 65% 30.03 in 10.0 mi NW 8.1 mph - N/A   Overcast
3:54 PM 33.8 °F 26.4 °F 23.0 °F 65% 30.03 in 10.0 mi NW 9.2 mph - N/A   Overcast
4:15 PM 32.0 °F 25.6 °F 23.0 °F 69% 30.04 in 10.0 mi NNW 6.9 mph - N/A   Overcast
4:34 PM 32.0 °F 23.6 °F 24.8 °F 75% 30.05 in 10.0 mi NW 10.4 mph - N/A   Overcast
4:55 PM 30.2 °F 21.3 °F 23.0 °F 75% 30.06 in 10.0 mi NW 10.4 mph - N/A   Overcast
5:13 PM 30.2 °F 22.6 °F 23.0 °F 75% 30.06 in 10.0 mi NNW 8.1 mph - N/A   Overcast
5:22 PM 30.2 °F 22.6 °F 23.0 °F 75% 30.06 in 10.0 mi NNW 8.1 mph - N/A   Overcast
5:55 PM 30.2 °F 24.3 °F 23.0 °F 75% 30.07 in 10.0 mi NNW 5.8 mph - N/A   Overcast
6:15 PM 30.2 °F 24.3 °F 23.0 °F 75% 30.08 in 10.0 mi NNW 5.8 mph - N/A   Overcast
6:33 PM 28.4 °F 21.2 °F 21.2 °F 74% 30.08 in 10.0 mi NNW 6.9 mph - N/A   Overcast
6:55 PM 28.4 °F - 21.2 °F 74% 30.09 in 10.0 mi Calm Calm - N/A   Overcast
7:14 PM 28.4 °F 24.6 °F 21.2 °F 74% 30.09 in 10.0 mi North 3.5 mph - N/A   Overcast
7:35 PM 28.4 °F - 21.2 °F 74% 30.10 in 10.0 mi Calm Calm - N/A   Overcast
7:55 PM 26.6 °F - 21.2 °F 80% 30.10 in 10.0 mi Calm Calm - N/A   Overcast
8:14 PM 26.6 °F - 21.2 °F 80% 30.11 in 10.0 mi Calm Calm - N/A   Overcast
8:35 PM 28.4 °F - 21.2 °F 74% 30.11 in 10.0 mi Calm Calm - N/A   Overcast
8:54 PM 26.6 °F - 21.2 °F 80% 30.11 in 10.0 mi Calm Calm - N/A   Overcast
9:14 PM 26.6 °F - 21.2 °F 80% 30.11 in 10.0 mi Calm Calm - N/A   Overcast
9:35 PM 26.6 °F - 23.0 °F 86% 30.11 in 10.0 mi Calm Calm - N/A   Overcast
9:54 PM 26.6 °F - 21.2 °F 80% 30.11 in 10.0 mi Calm Calm - N/A   Overcast
10:15 PM 26.6 °F - 23.0 °F 86% 30.11 in 10.0 mi Calm Calm - N/A   Overcast
10:34 PM 26.6 °F - 23.0 °F 86% 30.11 in 10.0 mi Calm Calm - N/A   Overcast
10:54 PM 26.6 °F - 21.2 °F 80% 30.11 in 10.0 mi Calm Calm - N/A   Overcast
11:15 PM 26.6 °F - 21.2 °F 80% 30.11 in 10.0 mi Calm Calm - N/A   Overcast
11:34 PM 26.6 °F - 23.0 °F 86% 30.12 in 10.0 mi Calm Calm - N/A   Overcast
11:55 PM 26.6 °F - 21.2 °F 80% 30.11 in 10.0 mi Calm Calm - N/A   Overcast